Torna al catalogo

INTELSAT 24

AMOS 1

AttivoComunicazioniGEO
NORAD 23865·PAYLOAD· XX

Lanciato May 16, 1996 da Guiana Space Centre

Loading…

TLE

AggiornatoSource: Space-Track

Epoca: Sep 14, 2026, 06:15 UTC

1 23865U 96030B   26257.26101350 -.00000174  00000-0  00000-0 0  9995
2 23865  12.7342  33.5544 0011468 192.8870   9.8059  0.97119058109443

Traccia INTELSAT 24 in tempo reale con AllMySat

Download on the App Store